Weather History for Marion, OH

Change the Weather History Date:

Saturday, December 8, 2012

  Actual Average (KDLZ) Record (KDLZ)
Temperature  
Mean Temperature 44 °F -  
Max Temperature 50 °F 41 °F 62 °F (1946)
Min Temperature 39 °F 27 °F -2 °F (1977)
Degree Days  
Heating Degree Days 20    
Moisture  
Dew Point 44 °F    
Average Humidity 94    
Maximum Humidity 100    
Minimum Humidity 86    
Precipitation  
Precipitation 0.02 in - - ()
Sea Level Pressure  
Sea Level Pressure 29.91 in    
Wind  
Wind Speed 9 mph (West)    
Max Wind Speed 17 mph    
Max Gust Speed 18 mph    
Visibility 6 miles    
Events Rain    
Averages and records for this station are not official NWS values.
T = Trace of Precipitation, MM = Missing Value Source: NWS Daily Summary

Daily Weather History Graph

Daily Weather History Graph

Search for Another Location

Airport:

Trip Planner

Search our weather history database for the weather conditions in past years. The results will help you decide how hot, cold, wet, or windy it might be!

Date:

Astronomy

Dec. 08, 2012 Rise Set
Actual Time 7:43 AM EST 5:05 PM EST
Civil Twilight 7:13 AM EST 5:35 PM EST
Nautical Twilight 6:38 AM EST 6:09 PM EST
Astronomical Twilight 6:05 AM EST 6:43 PM EST
Moon 2:05 AM EST (12/8) 1:35 PM EST (12/8)
Length of Visible Light 10h 22m
Length of Day
9h 21m
Waning Crescent, 28% of the Moon is Illuminated
Dec 8
Waning Crescent
Dec 13
New
Dec 20
First Quarter
Dec 28
Full
Jan 4
Last Quarter

Hourly Weather History & Observations

Time (EST) Temp. Windchill Dew Point Humidity Pressure Visibility Wind Dir Wind Speed Gust Speed Precip Events Conditions
12:22 AM 46.4 °F 42.4 °F 46.4 °F 100% 29.82 in 4.0 mi SE 8.1 mph - 0.01 in Rain Light Rain
12:53 AM 46.9 °F - 46.9 °F 100% 29.83 in 3.0 mi SSE 6.9 mph - 0.01 in Rain Light Rain
1:00 AM 48.2 °F - 46.4 °F 93% 29.81 in 2.5 mi South 6.9 mph - 0.00 in Rain Light Rain
1:07 AM 48.2 °F - 46.4 °F 93% 29.81 in 4.0 mi South 4.6 mph - 0.01 in Rain Light Rain
1:26 AM 48.2 °F - 46.4 °F 93% 29.80 in 6.0 mi South 9.2 mph - 0.01 in   Overcast
1:53 AM 48.0 °F - 48.0 °F 100% 29.81 in 5.0 mi SSW 8.1 mph - 0.01 in   Overcast
2:29 AM 50.0 °F - 48.2 °F 94% 29.81 in 7.0 mi SW 9.2 mph - N/A   Overcast
2:39 AM 50.0 °F - 48.2 °F 94% 29.81 in 8.0 mi SW 10.4 mph 18.4 mph N/A   Overcast
2:53 AM 50.0 °F - 48.0 °F 93% 29.82 in 8.0 mi SW 8.1 mph - N/A   Overcast
3:05 AM 50.0 °F - 48.2 °F 94% 29.81 in 7.0 mi SW 9.2 mph - N/A   Overcast
3:24 AM 50.0 °F - 48.2 °F 94% 29.81 in 7.0 mi SSW 5.8 mph - N/A   Overcast
3:37 AM 48.2 °F - 48.2 °F 100% 29.81 in 6.0 mi SW 6.9 mph - N/A   Mostly Cloudy
3:53 AM 48.9 °F - 46.9 °F 93% 29.83 in 6.0 mi SW 6.9 mph - N/A   Mostly Cloudy
4:02 AM 48.2 °F - 46.4 °F 93% 29.81 in 6.0 mi SW 6.9 mph - N/A   Scattered Clouds
4:13 AM 48.2 °F - 46.4 °F 93% 29.82 in 6.0 mi SW 8.1 mph - N/A   Mostly Cloudy
4:50 AM 48.2 °F - 46.4 °F 93% 29.81 in 8.0 mi SW 10.4 mph - N/A   Overcast
4:53 AM 48.9 °F - 46.9 °F 93% 29.83 in 8.0 mi SW 10.4 mph - N/A   Overcast
5:12 AM 48.2 °F - 46.4 °F 93% 29.81 in 8.0 mi SW 8.1 mph - N/A   Overcast
5:53 AM 48.9 °F - 46.0 °F 90% 29.83 in 8.0 mi West 6.9 mph - N/A   Overcast
6:27 AM 48.2 °F - 46.4 °F 93% 29.82 in 6.0 mi SW 6.9 mph - N/A   Overcast
6:50 AM 48.2 °F - 46.4 °F 93% 29.82 in 6.0 mi WSW 4.6 mph - N/A   Overcast
6:53 AM 48.0 °F - 46.0 °F 93% 29.83 in 6.0 mi WSW 4.6 mph - N/A   Overcast
7:53 AM 48.0 °F - 46.0 °F 93% 29.85 in 6.0 mi West 6.9 mph - N/A   Overcast
8:53 AM 48.0 °F - 46.0 °F 93% 29.87 in 5.0 mi WSW 4.6 mph - N/A   Overcast
9:28 AM 48.2 °F - 46.4 °F 93% 29.87 in 4.0 mi West 4.6 mph - N/A   Overcast
9:53 AM 48.0 °F - 46.0 °F 93% 29.89 in 4.0 mi West 5.8 mph - 0.00 in Rain Light Rain
10:53 AM 48.0 °F - 46.9 °F 96% 29.90 in 3.0 mi West 5.8 mph - 0.00 in   Overcast
11:53 AM 48.9 °F - 46.0 °F 90% 29.88 in 4.0 mi West 9.2 mph - N/A   Overcast
12:21 PM 48.2 °F - 46.4 °F 93% 29.87 in 7.0 mi West 9.2 mph - N/A   Overcast
12:53 PM 48.9 °F - 45.0 °F 86% 29.88 in 10.0 mi WNW 11.5 mph - N/A   Overcast
1:36 PM 48.2 °F - 44.6 °F 87% 29.88 in 8.0 mi NW 10.4 mph - N/A   Overcast
1:53 PM 48.0 °F - 45.0 °F 89% 29.90 in 7.0 mi NW 8.1 mph - N/A   Overcast
2:53 PM 46.9 °F - 44.1 °F 90% 29.93 in 7.0 mi NW 9.2 mph - N/A   Overcast
3:53 PM 46.0 °F 40.6 °F 44.1 °F 93% 29.96 in 2.5 mi NNW 11.5 mph - N/A   Overcast
3:59 PM 44.6 °F 38.8 °F 44.6 °F 100% 29.95 in 1.8 mi NNW 11.5 mph - N/A   Overcast
4:29 PM 44.6 °F 40.2 °F 44.6 °F 100% 29.96 in 3.0 mi NNW 8.1 mph - N/A   Overcast
4:39 PM 44.6 °F 39.7 °F 44.6 °F 100% 29.97 in 2.0 mi NNW 9.2 mph - N/A   Overcast
4:53 PM 45.0 °F 39.3 °F 43.0 °F 93% 29.99 in 2.5 mi NNW 11.5 mph - N/A   Overcast
5:12 PM 44.6 °F 39.7 °F 42.8 °F 93% 29.98 in 3.0 mi North 9.2 mph - N/A   Overcast
5:51 PM 39.2 °F 30.2 °F 39.2 °F 100% 30.00 in 2.0 mi NNE 17.3 mph - N/A   Overcast
5:53 PM 39.9 °F 31.4 °F 39.0 °F 97% 30.02 in 1.8 mi NNE 16.1 mph - N/A   Overcast
6:08 PM 39.2 °F 30.8 °F 39.2 °F 100% 30.01 in 2.0 mi NNE 15.0 mph - N/A   Overcast
6:31 PM 39.2 °F 32.0 °F 39.2 °F 100% 30.03 in 4.0 mi NNE 11.5 mph - N/A   Overcast
6:53 PM 39.0 °F 31.4 °F 37.9 °F 96% 30.06 in 8.0 mi NNE 12.7 mph - N/A   Overcast
7:53 PM 39.0 °F 31.0 °F 37.0 °F 93% 30.08 in 8.0 mi NE 13.8 mph - N/A   Overcast
8:35 PM 39.2 °F 32.5 °F 37.4 °F 93% 30.06 in 10.0 mi NE 10.4 mph - N/A   Overcast
8:53 PM 39.0 °F 32.8 °F 37.0 °F 93% 30.09 in 10.0 mi ENE 9.2 mph - N/A   Overcast
9:53 PM 39.0 °F 31.8 °F 37.0 °F 93% 30.09 in 10.0 mi ENE 11.5 mph - N/A   Overcast
11:12 PM 39.2 °F 31.6 °F 37.4 °F 93% 30.08 in 7.0 mi ENE 12.7 mph - N/A   Overcast
11:48 PM 39.2 °F 31.6 °F 37.4 °F 93% 30.09 in 10.0 mi ENE 12.7 mph - N/A   Overcast
11:53 PM 39.0 °F 31.0 °F 37.9 °F 96% 30.11 in 10.0 mi ENE 13.8 mph - N/A   Overcast